| time (UTC) | temp C | wind direction | speed KPH | gust KPH | rain 1hr cm | rain 24hr cm | rain mn cm | humidity % | barometer mb |
| 20260902185022 | 18 | 0.0 | 0.0 | 0.00 | 0.00 | 0.00 | 52 | 1017.1 | |
| 20260902184022 | 18 | 0.0 | 0.0 | 0.00 | 0.00 | 0.00 | 51 | 1017.1 | |
| 20260902183022 | 18 | 0.0 | 0.0 | 0.00 | 0.00 | 0.00 | 50 | 1017.1 | |
| 20260902182023 | 18 | 0.0 | 0.0 | 0.00 | 0.10 | 0.00 | 50 | 1017.1 | |
| 20260902181023 | 19 | 0.0 | 0.0 | 0.00 | 0.10 | 0.00 | 49 | 1017.1 | |
| 20260902180104 | 19 | 0.0 | 0.0 | 0.00 | 0.10 | 0.00 | 49 | 1017.1 | |
| 20260902175023 | 20 | 0.0 | 0.0 | 0.00 | 0.10 | 0.00 | 48 | 1017.1 | |
| 20260902174018 | 20 | 0.0 | 0.0 | 0.00 | 0.10 | 0.00 | 47 | 1017.1 | |
| 20260902173021 | 20 | 0.0 | 0.0 | 0.00 | 0.10 | 0.00 | 47 | 1017.1 | |
| 20260902172023 | 20 | 225 | 0.0 | 1.6 | 0.00 | 0.10 | 0.00 | 47 | 1017.1 |
| 20260902171023 | 20 | 0.0 | 0.0 | 0.00 | 0.10 | 0.00 | 46 | 1017.1 | |
| 20260902170022 | 20 | 0.0 | 0.0 | 0.00 | 0.10 | 0.00 | 45 | 1017.1 | |
| 20260902165020 | 20 | 68 | 1.6 | 3.2 | 0.00 | 0.10 | 0.00 | 45 | 1017.1 |
| 20260902164022 | 20 | 203 | 0.0 | 1.6 | 0.00 | 0.10 | 0.00 | 45 | 1017.1 |
| 20260902163027 | 21 | 225 | 0.0 | 1.6 | 0.00 | 0.10 | 0.00 | 44 | 1016.1 |
| 20260902162022 | 21 | 68 | 1.6 | 3.2 | 0.00 | 0.10 | 0.00 | 44 | 1016.9 |
| 20260902161017 | 21 | 263 | 1.6 | 3.2 | 0.00 | 0.10 | 0.00 | 43 | 1017.1 |
| 20260902160025 | 21 | 33 | 3.2 | 4.8 | 0.00 | 0.10 | 0.00 | 43 | 1016.1 |
| 20260902155022 | 21 | 170 | 1.6 | 3.2 | 0.00 | 0.10 | 0.00 | 43 | 1016.1 |
| 20260902154038 | -17 | 75 | 3.2 | 4.8 | 0.00 | 0.10 | 0.00 | 1016.1 | |
| 20260902153017 | 21 | 52 | 3.2 | 6.4 | 0.00 | 0.10 | 0.00 | 43 | 1017.1 |
| 20260902152024 | 22 | 64 | 1.6 | 4.8 | 0.00 | 0.10 | 0.00 | 42 | 1017.1 |
| 20260902151028 | 22 | 60 | 4.8 | 8.0 | 0.00 | 0.10 | 0.00 | 42 | 1017.1 |
| 20260902150044 | 23 | 275 | 1.6 | 3.2 | 0.00 | 0.10 | 0.00 | 41 | 1017.1 |
| 20260902145025 | 23 | 229 | 3.2 | 3.2 | 0.00 | 0.10 | 0.00 | 41 | 1017.1 |
| 20260902144022 | 24 | 219 | 1.6 | 3.2 | 0.00 | 0.10 | 0.00 | 41 | 1017.1 |
| 20260902143021 | 24 | 199 | 1.6 | 3.2 | 0.00 | 0.10 | 0.00 | 41 | 1017.1 |
| 20260902142026 | 24 | 71 | 3.2 | 6.4 | 0.00 | 0.10 | 0.00 | 41 | 1017.1 |
| 20260902141023 | 23 | 140 | 3.2 | 4.8 | 0.00 | 0.10 | 0.00 | 42 | 1017.1 |
| 20260902140026 | 25 | 198 | 3.2 | 4.8 | 0.00 | 0.10 | 0.00 | 42 | 1017.1 |
| 20260902135023 | 23 | 203 | 1.6 | 4.8 | 0.00 | 0.10 | 0.00 | 43 | 1017.1 |
| 20260902134025 | 23 | 68 | 3.2 | 6.4 | 0.00 | 0.10 | 0.00 | 43 | 1017.1 |
| 20260902133028 | 23 | 101 | 3.2 | 4.8 | 0.00 | 0.10 | 0.00 | 45 | 1017.1 |
| 20260902132032 | 22 | 104 | 3.2 | 6.4 | 0.00 | 0.10 | 0.00 | 45 | 1017.1 |
| 20260902131015 | -17 | 213 | 3.2 | 4.8 | 0.00 | 0.10 | 0.00 | 1017.1 | |
| 20260902130107 | -17 | 58 | 6.4 | 9.7 | 0.00 | 0.10 | 0.00 | 1017.1 | |
| 20260902125025 | -17 | 219 | 3.2 | 4.8 | 0.00 | 0.10 | 0.00 | 1017.1 | |
| 20260902124023 | 22 | 219 | 1.6 | 3.2 | 0.00 | 0.10 | 0.00 | 46 | 1017.1 |
| 20260902123038 | -17 | 203 | 3.2 | 11.3 | 0.00 | 0.10 | 0.00 | 1017.1 | |
| 20260902122018 | 22 | 265 | 3.2 | 8.0 | 0.00 | 0.10 | 0.00 | 46 | 1017.1 |
| 20260902121026 | 22 | 272 | 1.6 | 3.2 | 0.00 | 0.10 | 0.00 | 46 | 1017.1 |
| 20260902120036 | 22 | 212 | 1.6 | 4.8 | 0.00 | 0.10 | 0.00 | 46 | 1017.1 |
| 20260902115024 | 22 | 212 | 1.6 | 4.8 | 0.00 | 0.10 | 0.00 | 47 | 1017.1 |
| 20260902114022 | 22 | 239 | 1.6 | 1.6 | 0.00 | 0.10 | 0.00 | 48 | 1017.1 |
| 20260902113023 | 21 | 215 | 0.0 | 3.2 | 0.00 | 0.10 | 0.00 | 50 | 1017.1 |
| 20260902112023 | 21 | 235 | 1.6 | 1.6 | 0.00 | 0.33 | 0.00 | 49 | 1017.1 |
| 20260902111026 | -17 | 54 | 1.6 | 4.8 | 0.00 | 0.33 | 0.00 | 1017.1 | |
| 20260902110022 | 21 | 85 | 1.6 | 4.8 | 0.00 | 0.33 | 0.00 | 51 | 1017.1 |
| 20260902105038 | 21 | 206 | 1.6 | 3.2 | 0.00 | 0.33 | 0.00 | 52 | 1017.9 |
| 20260902104028 | 21 | 194 | 3.2 | 4.8 | 0.00 | 0.33 | 0.00 | 52 | 1018.1 |
| 20260902103044 | 21 | 222 | 1.6 | 3.2 | 0.00 | 0.33 | 0.00 | 53 | 1018.1 |
| 20260902102023 | 21 | 55 | 3.2 | 4.8 | 0.00 | 0.43 | 0.00 | 53 | 1017.2 |
| 20260902101016 | 21 | 203 | 3.2 | 3.2 | 0.00 | 0.43 | 0.00 | 54 | 1017.1 |
| 20260902100020 | 21 | 151 | 1.6 | 3.2 | 0.00 | 0.43 | 0.00 | 55 | 1018.1 |
| 20260902095025 | 21 | 47 | 1.6 | 6.4 | 0.00 | 0.43 | 0.00 | 56 | 1018.1 |
| 20260902094019 | 20 | 46 | 1.6 | 4.8 | 0.00 | 0.43 | 0.00 | 58 | 1018.1 |
| 20260902093023 | 20 | 174 | 1.6 | 4.8 | 0.00 | 0.43 | 0.00 | 57 | 1018.1 |
| 20260902092022 | 20 | 167 | 1.6 | 3.2 | 0.00 | 0.43 | 0.00 | 57 | 1017.2 |
| 20260902091023 | 20 | 271 | 1.6 | 1.6 | 0.00 | 0.43 | 0.00 | 58 | 1017.1 |
| 20260902090016 | 20 | 222 | 1.6 | 3.2 | 0.00 | 0.43 | 0.00 | 59 | 1018.1 |
| 20260902085022 | 20 | 213 | 1.6 | 3.2 | 0.00 | 0.43 | 0.00 | 60 | 1017.2 |
| 20260902084025 | 20 | 224 | 1.6 | 3.2 | 0.00 | 0.43 | 0.00 | 62 | 1017.1 |
| 20260902083025 | -17 | 162 | 3.2 | 6.4 | 0.00 | 0.43 | 0.00 | 1017.1 | |
| 20260902082048 | 19 | 222 | 1.6 | 3.2 | 0.00 | 0.43 | 0.00 | 63 | 1017.1 |
| 20260902081025 | -17 | 203 | 1.6 | 3.2 | 0.00 | 0.43 | 0.00 | 1017.1 | |
| 20260902080045 | 18 | 146 | 1.6 | 6.4 | 0.00 | 0.43 | 0.00 | 65 | 1017.1 |
| 20260902075028 | -17 | 219 | 1.6 | 3.2 | 0.00 | 0.43 | 0.00 | 1017.1 | |
| 20260902074024 | 18 | 215 | 1.6 | 1.6 | 0.00 | 0.43 | 0.00 | 67 | 1017.1 |
| 20260902073017 | -17 | 218 | 1.6 | 3.2 | 0.00 | 0.43 | 0.00 | 1017.1 | |
| 20260902072024 | 18 | 203 | 1.6 | 1.6 | 0.00 | 0.43 | 0.00 | 68 | 1017.1 |
| 20260902071024 | 18 | 212 | 0.0 | 3.2 | 0.00 | 0.43 | 0.00 | 68 | 1017.1 |
| 20260902070019 | 17 | 270 | 0.0 | 1.6 | 0.00 | 0.43 | 0.00 | 68 | 1017.1 |
| 20260902065024 | 17 | 222 | 1.6 | 3.2 | 0.00 | 0.43 | 0.00 | 69 | 1017.1 |
| 20260902064043 | 17 | 240 | 0.0 | 1.6 | 0.00 | 0.43 | 0.00 | 69 | 1017.1 |
| 20260902063042 | 17 | 216 | 0.0 | 3.2 | 0.00 | 0.43 | 0.00 | 70 | 1017.1 |
| 20260902062022 | 17 | 203 | 0.0 | 3.2 | 0.00 | 0.43 | 0.00 | 70 | 1017.1 |
| 20260902061023 | 16 | 235 | 1.6 | 4.8 | 0.00 | 0.43 | 0.00 | 71 | 1017.1 |
| 20260902060022 | 16 | 225 | 0.0 | 1.6 | 0.00 | 0.43 | 0.00 | 71 | 1017.1 |
| 20260902055023 | 17 | 248 | 0.0 | 1.6 | 0.00 | 0.43 | 0.00 | 71 | 1017.1 |
| 20260902054044 | 16 | 226 | 1.6 | 1.6 | 0.00 | 0.43 | 0.00 | 71 | 1017.1 |
| 20260902053017 | 16 | 203 | 0.0 | 3.2 | 0.00 | 0.43 | 0.00 | 71 | 1017.1 |
| 20260902052017 | 16 | 252 | 0.0 | 3.2 | 0.00 | 0.43 | 0.00 | 71 | 1017.1 |
| 20260902051026 | 16 | 239 | 1.6 | 3.2 | 0.00 | 0.43 | 0.00 | 72 | 1017.1 |
| 20260902050026 | 16 | 203 | 0.0 | 1.6 | 0.00 | 0.43 | 0.00 | 72 | 1016.1 |
| 20260902045022 | 16 | 248 | 0.0 | 1.6 | 0.00 | 0.43 | 0.00 | 72 | 1016.9 |
| 20260902044024 | 16 | 0.0 | 0.0 | 0.00 | 0.43 | 0.00 | 73 | 1017.1 | |
| 20260902043022 | 15 | 0.0 | 0.0 | 0.00 | 0.43 | 0.00 | 73 | 1016.1 | |
| 20260902042023 | 15 | 225 | 0.0 | 1.6 | 0.00 | 0.43 | 0.00 | 73 | 1016.1 |
| 20260902041023 | 15 | 0.0 | 0.0 | 0.00 | 0.43 | 0.00 | 73 | 1016.1 | |
| 20260902040016 | 15 | 0.0 | 0.0 | 0.00 | 0.43 | 0.00 | 73 | 1016.1 | |
| 20260902035217 | 15 | 203 | 0.0 | 1.6 | 0.00 | 0.43 | 0.00 | 73 | 1016.1 |
| 20260902034025 | 16 | 0.0 | 0.0 | 0.00 | 0.43 | 0.00 | 73 | 1016.1 | |
| 20260902033026 | 16 | 225 | 0.0 | 1.6 | 0.00 | 0.43 | 0.00 | 73 | 1016.1 |
| 20260902032024 | 16 | 0.0 | 0.0 | 0.00 | 0.43 | 0.00 | 73 | 1016.1 | |
| 20260902031204 | 16 | 0.0 | 0.0 | 0.00 | 0.43 | 0.00 | 73 | 1016.1 | |
| 20260902030024 | 16 | 0.0 | 0.0 | 0.00 | 0.43 | 0.00 | 73 | 1016.1 | |
| 20260902025018 | 16 | 248 | 0.0 | 1.6 | 0.00 | 0.43 | 0.00 | 73 | 1016.1 |
| 20260902024017 | 16 | 0.0 | 0.0 | 0.00 | 0.43 | 0.00 | 73 | 1016.1 | |
| 20260902023015 | 16 | 225 | 0.0 | 1.6 | 0.00 | 0.43 | 0.00 | 73 | 1016.1 |
| 20260902022022 | 16 | 158 | 0.0 | 1.6 | 0.00 | 0.43 | 0.00 | 74 | 1016.1 |
| 20260902021042 | 16 | 225 | 0.0 | 1.6 | 0.00 | 0.43 | 0.00 | 74 | 1016.1 |
| 20260902020023 | 16 | 0.0 | 0.0 | 0.00 | 0.43 | 0.00 | 74 | 1016.1 | |
| 20260902015020 | 16 | 0.0 | 0.0 | 0.00 | 0.43 | 0.00 | 73 | 1016.1 | |
| 20260902014025 | 16 | 203 | 0.0 | 1.6 | 0.00 | 0.43 | 0.00 | 73 | 1016.1 |
| 20260902013025 | 16 | 0.0 | 0.0 | 0.00 | 0.43 | 0.00 | 73 | 1016.1 | |
| 20260902012103 | 16 | 0.0 | 0.0 | 0.00 | 0.43 | 0.00 | 73 | 1016.1 | |
| 20260902011024 | 16 | 0.0 | 0.0 | 0.00 | 0.43 | 0.00 | 73 | 1016.1 | |
| 20260902010101 | 16 | 203 | 0.0 | 1.6 | 0.00 | 0.43 | 0.00 | 73 | 1016.1 |
| 20260902005023 | 16 | 0.0 | 0.0 | 0.00 | 0.43 | 0.00 | 73 | 1016.1 | |
| 20260902004023 | 16 | 0.0 | 0.0 | 0.00 | 0.43 | 0.00 | 73 | 1016.1 | |
| 20260902003045 | 16 | 0.0 | 0.0 | 0.00 | 0.43 | 0.00 | 73 | 1016.1 | |
| 20260902002016 | 16 | 0.0 | 0.0 | 0.00 | 0.43 | 0.00 | 73 | 1016.1 | |
| 20260902001019 | 16 | 0.0 | 0.0 | 0.00 | 0.43 | 0.00 | 73 | 1016.1 | |
| 20260902000032 | 16 | 0.0 | 0.0 | 0.00 | 0.43 | 0.00 | 73 | 1016.1 | |
| 20260901235023 | -17 | 0.0 | 0.0 | 0.00 | 0.43 | 0.00 | 1016.1 | ||
| 20260901234017 | 16 | 0.0 | 0.0 | 0.00 | 0.43 | 0.00 | 73 | 1016.1 | |
| 20260901233022 | 16 | 0.0 | 0.0 | 0.00 | 0.43 | 0.00 | 73 | 1016.1 | |
| 20260901232019 | 16 | 248 | 0.0 | 3.2 | 0.00 | 0.43 | 0.00 | 73 | 1016.1 |
| 20260901231045 | 16 | 0.0 | 0.0 | 0.00 | 0.43 | 0.00 | 73 | 1016.1 | |
| 20260901230028 | 16 | 225 | 0.0 | 1.6 | 0.00 | 0.43 | 0.00 | 73 | 1016.1 |
| 20260901225043 | 16 | 0.0 | 0.0 | 0.00 | 0.43 | 0.00 | 73 | 1016.1 | |
| 20260901224017 | 16 | 0.0 | 0.0 | 0.00 | 0.43 | 0.00 | 73 | 1016.1 | |
| 20260901223025 | 16 | 0.0 | 0.0 | 0.00 | 0.43 | 0.00 | 73 | 1016.1 | |
| 20260901222023 | 16 | 0.0 | 0.0 | 0.00 | 0.43 | 0.00 | 73 | 1016.1 | |
| 20260901221024 | 16 | 0.0 | 0.0 | 0.00 | 0.43 | 0.00 | 73 | 1016.1 | |
| 20260901220022 | 16 | 225 | 0.0 | 1.6 | 0.00 | 0.43 | 0.00 | 72 | 1016.1 |
| 20260901215023 | 16 | 0.0 | 0.0 | 0.00 | 0.43 | 0.43 | 73 | 1016.1 | |
| 20260901214046 | 16 | 0.0 | 0.0 | 0.00 | 0.43 | 0.43 | 72 | 1016.1 | |
| 20260901213145 | 16 | 0.0 | 0.0 | 0.00 | 0.43 | 0.43 | 72 | 1016.1 | |
| 20260901212024 | 16 | 0.0 | 0.0 | 0.00 | 0.43 | 0.43 | 72 | 1016.1 | |
| 20260901211015 | 16 | 0.0 | 0.0 | 0.00 | 0.43 | 0.43 | 72 | 1016.1 | |
| 20260901210024 | 16 | 203 | 0.0 | 1.6 | 0.00 | 0.43 | 0.43 | 72 | 1016.1 |
| 20260901205018 | 17 | 225 | 0.0 | 1.6 | 0.00 | 0.43 | 0.43 | 73 | 1016.1 |
| 20260901204022 | 17 | 0.0 | 0.0 | 0.00 | 0.43 | 0.43 | 72 | 1016.1 | |
| 20260901203018 | 17 | 0.0 | 0.0 | 0.00 | 0.43 | 0.43 | 72 | 1016.1 | |
| 20260901202024 | 17 | 0.0 | 0.0 | 0.00 | 0.43 | 0.43 | 72 | 1016.1 | |
| 20260901201022 | 17 | 0.0 | 0.0 | 0.00 | 0.43 | 0.43 | 71 | 1016.1 | |
| 20260901200016 | 17 | 0.0 | 0.0 | 0.00 | 0.43 | 0.43 | 71 | 1016.1 | |
| 20260901195024 | 17 | 0.0 | 0.0 | 0.00 | 0.43 | 0.43 | 71 | 1016.1 | |
| 20260901194022 | 17 | 0.0 | 0.0 | 0.00 | 0.43 | 0.43 | 71 | 1016.1 | |
| 20260901193015 | 17 | 203 | 0.0 | 1.6 | 0.00 | 0.43 | 0.43 | 71 | 1016.1 |
| 20260901192046 | 17 | 0.0 | 0.0 | 0.10 | 0.43 | 0.43 | 71 | 1016.1 | |
| 20260901191046 | 17 | 0.0 | 0.0 | 0.10 | 0.43 | 0.43 | 70 | 1016.1 | |
| 20260901190038 | 17 | 0.0 | 0.0 | 0.10 | 0.43 | 0.43 | 69 | 1016.1 |